This is the latest recevied weather packets stored in our database for station/object G4KVI. If no packets are shown the sender has not sent any weather packets the latest 10 day(s).
| Time | Temp. | Humidity | Pressure | Rain* | Wind** | Luminosity | Snow |
|---|---|---|---|---|---|---|---|
| 1788528604 | 17.78° C | 67% | 1018.7 hPa | 0 mm | - | 252 W/m² | - |
| 1788528304 | 17.78° C | 67% | 1018.6 hPa | 0 mm | - | 244 W/m² | - |
| 1788528004 | 17.78° C | 67% | 1018.2 hPa | 0 mm | - | 236 W/m² | - |
| 1788527704 | 17.78° C | 67% | 1018.4 hPa | 0 mm | - | 234 W/m² | - |
| 1788527404 | 17.78° C | 68% | 1018.5 hPa | 0 mm | - | 214 W/m² | - |
| 1788527104 | 17.78° C | 68% | 1018.7 hPa | 0 mm | - | 220 W/m² | - |
| 1788526804 | 17.78° C | 69% | 1018.4 hPa | 0 mm | - | 213 W/m² | - |
| 1788526504 | 17.78° C | 68% | 1018.3 hPa | 0 mm | - | 228 W/m² | - |
| 1788526204 | 17.78° C | 68% | 1018.2 hPa | 0 mm | - | 216 W/m² | - |
| 1788525904 | 17.78° C | 68% | 1018 hPa | 0 mm | - | 201 W/m² | - |
| 1788525604 | 17.78° C | 67% | 1018.1 hPa | 0 mm | - | 192 W/m² | - |
| 1788525304 | 17.78° C | 67% | 1018.2 hPa | 0 mm | - | 188 W/m² | - |
| 1788525004 | 17.78° C | 65% | 1018.4 hPa | 0 mm | - | 158 W/m² | - |
| 1788524704 | 17.78° C | 64% | 1018.2 hPa | 0 mm | - | 122 W/m² | - |
| 1788524404 | 17.78° C | 63% | 1018.2 hPa | 0 mm | - | 145 W/m² | - |
| 1788524104 | 17.78° C | 63% | 1018.3 hPa | 0 mm | - | 191 W/m² | - |
| 1788523804 | 17.78° C | 66% | 1018.1 hPa | 0 mm | - | 216 W/m² | - |
| 1788523504 | 17.78° C | 65% | 1017.9 hPa | 0 mm | - | 234 W/m² | - |
| 1788523204 | 17.78° C | 66% | 1017.8 hPa | 0 mm | - | 221 W/m² | - |
| 1788522904 | 17.78° C | 68% | 1017.9 hPa | 0 mm | - | 210 W/m² | - |
| 1788522604 | 17.78° C | 68% | 1018.1 hPa | 0 mm | - | 218 W/m² | - |
| 1788522304 | 17.78° C | 69% | 1017.3 hPa | 0 mm | - | 231 W/m² | - |
| 1788522004 | 17.78° C | 72% | 1017.5 hPa | 0 mm | - | 192 W/m² | - |
| 1788521704 | 17.78° C | 71% | 1017.3 hPa | 0 mm | - | 216 W/m² | - |
| 1788521404 | 17.78° C | 71% | 1017.6 hPa | 0 mm | - | 152 W/m² | - |
* Rain latest hour (hover to see other rain measurements)
** Current wind speed in m/s (hover to see current wind gust speed)